Location: Gradaro
(45.0833°N, 10.8833°E)
Time: 09:18:39
(UTC+00:00)

FENGYUN 1C DEB - Pass Details

Date: 27 June 2021
Orbit: 803 x 830 km, 98.8° (Epoch: 28 July)

Event Time Altitude Azimuth Distance (km) Brightness Sun altitude
Exits shadow 22:14:40 25° 213° (SSW) 1,584 ? -20.0°
Maximum altitude 22:17:04 38° 263° (W) 1,222 ? -20.2°
Drops below altitude 10° 22:22:02 10° 331° (NNW) 2,417 ? -20.4°
Sets 22:24:34 0° 339° (NNW) 3,359 ? -20.5°
